| time (UTC) | temp C | wind direction | speed KPH | gust KPH | rain 1hr cm | rain 24hr cm | rain mn cm | humidity % | barometer mb |
| 20260905230552 | 27 | 69 | 0.0 | 3.2 | 0.00 | 0.00 | 0.00 | 10 | 1020.4 |
| 20260905230043 | 27 | 258 | 0.0 | 1.6 | 0.00 | 0.00 | 0.00 | 10 | 1020.1 |
| 20260905225535 | 27 | 231 | 0.0 | 4.8 | 0.00 | 0.00 | 0.00 | 10 | 1020.4 |
| 20260905225027 | 27 | 305 | 1.6 | 4.8 | 0.00 | 0.00 | 0.00 | 10 | 1020.1 |
| 20260905224518 | 28 | 166 | 0.0 | 1.6 | 0.00 | 0.00 | 0.00 | 10 | 1020.4 |
| 20260905224008 | 28 | 195 | 0.0 | 1.6 | 0.00 | 0.00 | 0.00 | 12 | 1020.1 |
| 20260905223953 | 28 | 251 | 0.0 | 3.2 | 0.00 | 0.00 | 0.00 | 12 | 1020.1 |
| 20260905223559 | 28 | 171 | 0.0 | 0.0 | 0.00 | 0.00 | 0.00 | 10 | 1020.4 |
| 20260905222443 | 28 | 355 | 1.6 | 3.2 | 0.00 | 0.00 | 0.00 | 12 | 1020.1 |
| 20260905221935 | 28 | 192 | 0.0 | 1.6 | 0.00 | 0.00 | 0.00 | 12 | 1020.4 |
| 20260905221425 | 29 | 228 | 0.0 | 3.2 | 0.00 | 0.00 | 0.00 | 12 | 1020.1 |
| 20260905220916 | 29 | 116 | 0.0 | 3.2 | 0.00 | 0.00 | 0.00 | 12 | 1020.4 |
| 20260905220409 | 28 | 238 | 0.0 | 1.6 | 0.00 | 0.00 | 0.00 | 11 | 1020.4 |
| 20260905215859 | 28 | 44 | 0.0 | 0.0 | 0.00 | 0.00 | 0.00 | 10 | 1020.4 |
| 20260905215350 | 28 | 77 | 0.0 | 1.6 | 0.00 | 0.00 | 0.00 | 11 | 1020.4 |
| 20260905215344 | 28 | 102 | 0.0 | 1.6 | 0.00 | 0.00 | 0.00 | 11 | 1020.4 |
| 20260905214333 | 27 | 98 | 0.0 | 0.0 | 0.00 | 0.00 | 0.00 | 12 | 1020.4 |
| 20260905213824 | 27 | 338 | 0.0 | 0.0 | 0.00 | 0.00 | 0.00 | 12 | 1020.4 |
| 20260905213318 | 27 | 267 | 0.0 | 0.0 | 0.00 | 0.00 | 0.00 | 10 | 1020.7 |
| 20260905212807 | 27 | 200 | 0.0 | 0.0 | 0.00 | 0.00 | 0.00 | 12 | 1020.4 |
| 20260905212259 | 27 | 120 | 0.0 | 0.0 | 0.00 | 0.00 | 0.00 | 10 | 1020.7 |
| 20260905211751 | 27 | 180 | 0.0 | 1.6 | 0.00 | 0.00 | 0.00 | 10 | 1020.4 |
| 20260905211241 | 27 | 203 | 0.0 | 1.6 | 0.00 | 0.00 | 0.00 | 10 | 1020.7 |
| 20260905210733 | 27 | 122 | 0.0 | 1.6 | 0.00 | 0.00 | 0.00 | 12 | 1020.7 |
| 20260905210726 | 27 | 173 | 0.0 | 1.6 | 0.00 | 0.00 | 0.00 | 12 | 1020.7 |
| 20260905205716 | 26 | 151 | 0.0 | 1.6 | 0.00 | 0.00 | 0.00 | 10 | 1020.7 |
| 20260905205207 | 27 | 168 | 0.0 | 0.0 | 0.00 | 0.00 | 0.00 | 10 | 1020.7 |
| 20260905204701 | 27 | 99 | 0.0 | 0.0 | 0.00 | 0.00 | 0.00 | 10 | 1020.7 |
| 20260905204149 | 27 | 171 | 0.0 | 0.0 | 0.00 | 0.00 | 0.00 | 10 | 1020.7 |
| 20260905203641 | 27 | 143 | 0.0 | 1.6 | 0.00 | 0.00 | 0.00 | 10 | 1021.1 |
| 20260905203134 | 27 | 105 | 0.0 | 1.6 | 0.00 | 0.00 | 0.00 | 10 | 1021.1 |
| 20260905202624 | 27 | 68 | 0.0 | 1.6 | 0.00 | 0.00 | 0.00 | 10 | 1020.7 |
| 20260905202116 | 27 | 199 | 0.0 | 0.0 | 0.00 | 0.00 | 0.00 | 10 | 1021.1 |
| 20260905201608 | 27 | 346 | 0.0 | 1.6 | 0.00 | 0.00 | 0.00 | 10 | 1021.1 |
| 20260905201058 | 27 | 257 | 0.0 | 1.6 | 0.00 | 0.00 | 0.00 | 10 | 1020.7 |
| 20260905200549 | 26 | 34 | 0.0 | 1.6 | 0.00 | 0.00 | 0.00 | 12 | 1021.1 |
| 20260905200042 | 26 | 317 | 0.0 | 3.2 | 0.00 | 0.00 | 0.00 | 10 | 1021.1 |
| 20260905200035 | 26 | 296 | 0.0 | 4.8 | 0.00 | 0.00 | 0.00 | 10 | 1021.1 |
| 20260905195023 | 26 | 203 | 0.0 | 4.8 | 0.00 | 0.00 | 0.00 | 10 | 1021.4 |
| 20260905194519 | 26 | 252 | 0.0 | 0.0 | 0.00 | 0.00 | 0.00 | 10 | 1021.4 |
| 20260905194510 | 25 | 253 | 0.0 | 0.0 | 0.00 | 0.00 | 0.00 | 10 | 1021.1 |
| 20260905193503 | 25 | 312 | 0.0 | 0.0 | 0.00 | 0.00 | 0.00 | 10 | 1021.4 |
| 20260905192958 | 25 | 294 | 0.0 | 3.2 | 0.00 | 0.00 | 0.00 | 12 | 1021.4 |
| 20260905192952 | 25 | 88 | 0.0 | 3.2 | 0.00 | 0.00 | 0.00 | 12 | 1021.4 |
| 20260905191946 | 25 | 189 | 0.0 | 0.0 | 0.00 | 0.00 | 0.00 | 12 | 1021.8 |
| 20260905191442 | 25 | 268 | 0.0 | 0.0 | 0.00 | 0.00 | 0.00 | 12 | 1021.8 |
| 20260905190935 | 25 | 280 | 0.0 | 0.0 | 0.00 | 0.00 | 0.00 | 11 | 1021.8 |
| 20260905190433 | 25 | 115 | 0.0 | 1.6 | 0.00 | 0.00 | 0.00 | 12 | 1021.8 |
| 20260905190428 | 25 | 52 | 0.0 | 1.6 | 0.00 | 0.00 | 0.00 | 12 | 1021.8 |
| 20260905185419 | 24 | 194 | 0.0 | 3.2 | 0.00 | 0.00 | 0.00 | 13 | 1021.8 |
| 20260905184913 | 24 | 97 | 0.0 | 3.2 | 0.00 | 0.00 | 0.00 | 16 | 1021.8 |
| 20260905184410 | 24 | 156 | 0.0 | 3.2 | 0.00 | 0.00 | 0.00 | 19 | 1021.8 |
| 20260905183902 | 23 | 228 | 0.0 | 1.6 | 0.00 | 0.00 | 0.00 | 19 | 1021.8 |
| 20260905183357 | 23 | 151 | 0.0 | 0.0 | 0.00 | 0.00 | 0.00 | 18 | 1021.8 |
| 20260905182853 | 23 | 258 | 0.0 | 0.0 | 0.00 | 0.00 | 0.00 | 18 | 1021.8 |
| 20260905182843 | 23 | 106 | 0.0 | 1.6 | 0.00 | 0.00 | 0.00 | 20 | 1022.1 |
| 20260905182448 | 23 | 244 | 0.0 | 1.6 | 0.00 | 0.00 | 0.00 | 20 | 1021.8 |
| 20260905181336 | 23 | 68 | 0.0 | 1.6 | 0.00 | 0.00 | 0.00 | 18 | 1021.8 |
| 20260905180828 | 23 | 279 | 0.0 | 1.6 | 0.00 | 0.00 | 0.00 | 21 | 1021.8 |
| 20260905180822 | 23 | 44 | 0.0 | 1.6 | 0.00 | 0.00 | 0.00 | 22 | 1021.8 |
| 20260905180425 | 23 | 98 | 0.0 | 1.6 | 0.00 | 0.00 | 0.00 | 22 | 1021.8 |
| 20260905175313 | 23 | 291 | 0.0 | 0.0 | 0.00 | 0.00 | 0.00 | 19 | 1021.8 |
| 20260905175308 | 23 | 75 | 0.0 | 0.0 | 0.00 | 0.00 | 0.00 | 21 | 1021.8 |
| 20260905174303 | 23 | 115 | 0.0 | 0.0 | 0.00 | 0.00 | 0.00 | 19 | 1021.8 |
| 20260905173756 | 23 | 87 | 0.0 | 0.0 | 0.00 | 0.00 | 0.00 | 18 | 1021.8 |
| 20260905173748 | 23 | 78 | 0.0 | 1.6 | 0.00 | 0.00 | 0.00 | 19 | 1021.8 |
| 20260905173353 | 23 | 323 | 0.0 | 1.6 | 0.00 | 0.00 | 0.00 | 18 | 1021.8 |
| 20260905172239 | 22 | 54 | 0.0 | 1.6 | 0.00 | 0.00 | 0.00 | 17 | 1021.8 |
| 20260905171737 | 22 | 63 | 0.0 | 0.0 | 0.00 | 0.00 | 0.00 | 16 | 1021.8 |
| 20260905171731 | 22 | 238 | 0.0 | 0.0 | 0.00 | 0.00 | 0.00 | 16 | 1021.4 |
| 20260905171224 | 22 | 181 | 0.0 | 0.0 | 0.00 | 0.00 | 0.00 | 18 | 1021.4 |
| 20260905170217 | 22 | 198 | 0.0 | 0.0 | 0.00 | 0.00 | 0.00 | 15 | 1021.4 |
| 20260905165714 | 22 | 299 | 0.0 | 0.0 | 0.00 | 0.00 | 0.00 | 18 | 1021.4 |
| 20260905165708 | 22 | 263 | 0.0 | 0.0 | 0.00 | 0.00 | 0.00 | 18 | 1021.4 |
| 20260905164701 | 21 | 241 | 0.0 | 0.0 | 0.00 | 0.00 | 0.00 | 19 | 1021.8 |
| 20260905164157 | 21 | 201 | 0.0 | 1.6 | 0.00 | 0.00 | 0.00 | 19 | 1021.8 |
| 20260905163650 | 21 | 161 | 0.0 | 1.6 | 0.00 | 0.00 | 0.00 | 19 | 1021.8 |
| 20260905163144 | 21 | 210 | 0.0 | 0.0 | 0.00 | 0.00 | 0.00 | 19 | 1021.8 |
| 20260905162640 | 21 | 192 | 0.0 | 0.0 | 0.00 | 0.00 | 0.00 | 19 | 1021.4 |
| 20260905162133 | 21 | 356 | 0.0 | 0.0 | 0.00 | 0.00 | 0.00 | 19 | 1021.8 |
| 20260905161627 | 21 | 192 | 0.0 | 0.0 | 0.00 | 0.00 | 0.00 | 20 | 1021.4 |
| 20260905161124 | 21 | 314 | 0.0 | 0.0 | 0.00 | 0.00 | 0.00 | 20 | 1021.4 |
| 20260905160618 | 21 | 225 | 0.0 | 0.0 | 0.00 | 0.00 | 0.00 | 20 | 1021.4 |
| 20260905160113 | 21 | 232 | 0.0 | 0.0 | 0.00 | 0.00 | 0.00 | 20 | 1021.4 |
| 20260905160108 | 20 | 230 | 0.0 | 0.0 | 0.00 | 0.00 | 0.00 | 20 | 1021.4 |
| 20260905155100 | 20 | 42 | 0.0 | 0.0 | 0.00 | 0.00 | 0.00 | 20 | 1021.4 |
| 20260905154554 | 19 | 214 | 0.0 | 0.0 | 0.00 | 0.00 | 0.00 | 21 | 1021.4 |
| 20260905154050 | 18 | 197 | 0.0 | 0.0 | 0.00 | 0.00 | 0.00 | 22 | 1021.8 |
| 20260905153543 | 17 | 16 | 0.0 | 0.0 | 0.00 | 0.00 | 0.00 | 24 | 1021.8 |
| 20260905153038 | 17 | 204 | 0.0 | 0.0 | 0.00 | 0.00 | 0.00 | 28 | 1021.8 |
| 20260905152535 | 17 | 238 | 0.0 | 0.0 | 0.00 | 0.00 | 0.00 | 32 | 1021.4 |
| 20260905152027 | 16 | 187 | 0.0 | 0.0 | 0.00 | 0.00 | 0.00 | 33 | 1021.8 |
| 20260905151522 | 16 | 255 | 0.0 | 0.0 | 0.00 | 0.00 | 0.00 | 34 | 1021.4 |
| 20260905151018 | 16 | 216 | 0.0 | 0.0 | 0.00 | 0.00 | 0.00 | 34 | 1021.4 |
| 20260905150510 | 15 | 131 | 0.0 | 0.0 | 0.00 | 0.00 | 0.00 | 33 | 1021.4 |
| 20260905150005 | 15 | 186 | 0.0 | 0.0 | 0.00 | 0.00 | 0.00 | 32 | 1021.4 |
| 20260905145500 | 14 | 195 | 0.0 | 0.0 | 0.00 | 0.00 | 0.00 | 30 | 1021.4 |
| 20260905145454 | 13 | 181 | 0.0 | 0.0 | 0.00 | 0.00 | 0.00 | 30 | 1021.8 |
| 20260905144448 | 12 | 200 | 0.0 | 0.0 | 0.00 | 0.00 | 0.00 | 35 | 1021.8 |
| 20260905143944 | 12 | 201 | 0.0 | 0.0 | 0.00 | 0.00 | 0.00 | 40 | 1021.4 |
| 20260905143438 | 12 | 225 | 0.0 | 0.0 | 0.00 | 0.00 | 0.00 | 40 | 1021.8 |
| 20260905142932 | 11 | 205 | 0.0 | 0.0 | 0.00 | 0.00 | 0.00 | 41 | 1021.4 |
| 20260905142427 | 11 | 214 | 0.0 | 0.0 | 0.00 | 0.00 | 0.00 | 40 | 1021.4 |
| 20260905141921 | 11 | 216 | 0.0 | 0.0 | 0.00 | 0.00 | 0.00 | 40 | 1021.4 |
| 20260905140910 | 11 | 244 | 0.0 | 0.0 | 0.00 | 0.00 | 0.00 | 41 | 1021.1 |
| 20260905140404 | 11 | 222 | 0.0 | 0.0 | 0.00 | 0.00 | 0.00 | 41 | 1021.4 |
| 20260905135859 | 11 | 222 | 0.0 | 0.0 | 0.00 | 0.00 | 0.00 | 41 | 1021.1 |
| 20260905135355 | 11 | 222 | 0.0 | 0.0 | 0.00 | 0.00 | 0.00 | 41 | 1021.1 |
| 20260905134847 | 11 | 222 | 0.0 | 0.0 | 0.00 | 0.00 | 0.00 | 41 | 1021.1 |
| 20260905134342 | 11 | 222 | 0.0 | 0.0 | 0.00 | 0.00 | 0.00 | 41 | 1021.1 |
| 20260905133838 | 12 | 222 | 0.0 | 0.0 | 0.00 | 0.00 | 0.00 | 41 | 1021.1 |
| 20260905133331 | 12 | 222 | 0.0 | 0.0 | 0.00 | 0.00 | 0.00 | 41 | 1020.7 |
| 20260905132826 | 12 | 221 | 0.0 | 0.0 | 0.00 | 0.00 | 0.00 | 41 | 1020.7 |
| 20260905132321 | 12 | 210 | 0.0 | 0.0 | 0.00 | 0.00 | 0.00 | 39 | 1020.7 |
| 20260905131814 | 12 | 210 | 0.0 | 0.0 | 0.00 | 0.00 | 0.00 | 39 | 1021.1 |
| 20260905131309 | 12 | 210 | 0.0 | 0.0 | 0.00 | 0.00 | 0.00 | 39 | 1020.7 |
| 20260905130805 | 12 | 187 | 0.0 | 0.0 | 0.00 | 0.00 | 0.00 | 40 | 1020.7 |
| 20260905130257 | 12 | 225 | 0.0 | 0.0 | 0.00 | 0.00 | 0.00 | 41 | 1020.7 |
| 20260905125752 | 12 | 225 | 0.0 | 0.0 | 0.00 | 0.00 | 0.00 | 40 | 1020.7 |
| 20260905125247 | 12 | 225 | 0.0 | 0.0 | 0.00 | 0.00 | 0.00 | 40 | 1020.7 |
| 20260905125241 | 12 | 225 | 0.0 | 0.0 | 0.00 | 0.00 | 0.00 | 40 | 1020.7 |
| 20260905124236 | 12 | 231 | 0.0 | 0.0 | 0.00 | 0.00 | 0.00 | 40 | 1020.4 |
| 20260905123731 | 12 | 231 | 0.0 | 0.0 | 0.00 | 0.00 | 0.00 | 40 | 1020.4 |
| 20260905123225 | 12 | 216 | 0.0 | 0.0 | 0.00 | 0.00 | 0.00 | 40 | 1020.4 |
| 20260905122719 | 12 | 217 | 0.0 | 0.0 | 0.00 | 0.00 | 0.00 | 40 | 1020.7 |
| 20260905122214 | 12 | 231 | 0.0 | 0.0 | 0.00 | 0.00 | 0.00 | 40 | 1020.7 |
| 20260905121707 | 12 | 220 | 0.0 | 0.0 | 0.00 | 0.00 | 0.00 | 40 | 1020.7 |
| 20260905121202 | 12 | 224 | 0.0 | 0.0 | 0.00 | 0.00 | 0.00 | 39 | 1020.7 |
| 20260905120658 | 13 | 241 | 0.0 | 0.0 | 0.00 | 0.00 | 0.00 | 39 | 1020.7 |
| 20260905120151 | 13 | 225 | 0.0 | 0.0 | 0.00 | 0.00 | 0.00 | 39 | 1020.7 |
| 20260905115645 | 13 | 194 | 0.0 | 0.0 | 0.00 | 0.00 | 0.00 | 39 | 1020.7 |
| 20260905115141 | 13 | 194 | 0.0 | 0.0 | 0.00 | 0.00 | 0.00 | 40 | 1020.7 |
| 20260905114635 | 13 | 206 | 0.0 | 0.0 | 0.00 | 0.00 | 0.00 | 39 | 1020.7 |
| 20260905114129 | 13 | 194 | 0.0 | 0.0 | 0.00 | 0.00 | 0.00 | 39 | 1020.7 |
| 20260905113625 | 13 | 179 | 0.0 | 0.0 | 0.00 | 0.00 | 0.00 | 39 | 1020.7 |
| 20260905113118 | 13 | 218 | 0.0 | 0.0 | 0.00 | 0.00 | 0.00 | 39 | 1020.7 |
| 20260905112618 | 13 | 250 | 0.0 | 0.0 | 0.00 | 0.00 | 0.00 | 39 | 1020.7 |
| 20260905112109 | 13 | 250 | 0.0 | 0.0 | 0.00 | 0.00 | 0.00 | 39 | 1020.4 |
| 20260905111602 | 13 | 231 | 0.0 | 0.0 | 0.00 | 0.00 | 0.00 | 38 | 1021.1 |
| 20260905111557 | 13 | 216 | 0.0 | 0.0 | 0.00 | 0.00 | 0.00 | 38 | 1020.7 |
| 20260905110555 | 14 | 227 | 0.0 | 0.0 | 0.00 | 0.00 | 0.00 | 37 | 1020.7 |
| 20260905110547 | 14 | 208 | 0.0 | 0.0 | 0.00 | 0.00 | 0.00 | 37 | 1020.7 |
| 20260905105540 | 14 | 188 | 0.0 | 0.0 | 0.00 | 0.00 | 0.00 | 37 | 1021.1 |
| 20260905105035 | 14 | 206 | 0.0 | 0.0 | 0.00 | 0.00 | 0.00 | 37 | 1020.7 |
| 20260905104528 | 15 | 214 | 0.0 | 0.0 | 0.00 | 0.00 | 0.00 | 37 | 1021.1 |
| 20260905104523 | 15 | 214 | 0.0 | 0.0 | 0.00 | 0.00 | 0.00 | 36 | 1020.7 |
| 20260905103518 | 15 | 197 | 0.0 | 0.0 | 0.00 | 0.00 | 0.00 | 36 | 1020.7 |
| 20260905103012 | 14 | 246 | 0.0 | 0.0 | 0.00 | 0.00 | 0.00 | 35 | 1021.1 |
| 20260905102507 | 14 | 225 | 0.0 | 0.0 | 0.00 | 0.00 | 0.00 | 34 | 1020.7 |
| 20260905102002 | 14 | 258 | 0.0 | 0.0 | 0.00 | 0.00 | 0.00 | 34 | 1021.1 |
| 20260905101456 | 14 | 225 | 0.0 | 0.0 | 0.00 | 0.00 | 0.00 | 35 | 1020.7 |
| 20260905100949 | 13 | 279 | 0.0 | 0.0 | 0.00 | 0.00 | 0.00 | 36 | 1021.1 |
| 20260905100447 | 13 | 216 | 0.0 | 0.0 | 0.00 | 0.00 | 0.00 | 36 | 1021.1 |
| 20260905100440 | 13 | 234 | 0.0 | 0.0 | 0.00 | 0.00 | 0.00 | 35 | 1021.1 |
| 20260905095433 | 13 | 227 | 0.0 | 0.0 | 0.00 | 0.00 | 0.00 | 35 | 1021.1 |
| 20260905094929 | 13 | 237 | 0.0 | 0.0 | 0.00 | 0.00 | 0.00 | 35 | 1020.7 |
| 20260905094424 | 12 | 215 | 0.0 | 0.0 | 0.00 | 0.00 | 0.00 | 37 | 1021.1 |
| 20260905094419 | 12 | 271 | 0.0 | 0.0 | 0.00 | 0.00 | 0.00 | 37 | 1021.1 |
| 20260905093412 | 12 | 211 | 0.0 | 0.0 | 0.00 | 0.00 | 0.00 | 37 | 1021.1 |
| 20260905092905 | 12 | 224 | 0.0 | 0.0 | 0.00 | 0.00 | 0.00 | 37 | 1021.4 |
| 20260905092400 | 12 | 238 | 0.0 | 0.0 | 0.00 | 0.00 | 0.00 | 38 | 1021.1 |
| 20260905091857 | 12 | 229 | 0.0 | 0.0 | 0.00 | 0.00 | 0.00 | 38 | 1021.4 |
| 20260905091851 | 12 | 229 | 0.0 | 0.0 | 0.00 | 0.00 | 0.00 | 38 | 1021.4 |
| 20260905090843 | 13 | 229 | 0.0 | 0.0 | 0.00 | 0.00 | 0.00 | 38 | 1021.4 |
| 20260905090339 | 13 | 237 | 0.0 | 0.0 | 0.00 | 0.00 | 0.00 | 38 | 1021.8 |
| 20260905085833 | 13 | 231 | 0.0 | 0.0 | 0.00 | 0.00 | 0.00 | 38 | 1021.4 |
| 20260905085327 | 13 | 231 | 0.0 | 0.0 | 0.00 | 0.00 | 0.00 | 38 | 1021.4 |
| 20260905084823 | 13 | 231 | 0.0 | 0.0 | 0.00 | 0.00 | 0.00 | 38 | 1021.4 |
| 20260905084316 | 13 | 227 | 0.0 | 0.0 | 0.00 | 0.00 | 0.00 | 37 | 1021.4 |
| 20260905083811 | 13 | 226 | 0.0 | 0.0 | 0.00 | 0.00 | 0.00 | 37 | 1021.4 |
| 20260905083802 | 13 | 229 | 0.0 | 0.0 | 0.00 | 0.00 | 0.00 | 37 | 1021.4 |
| 20260905083408 | 13 | 227 | 0.0 | 0.0 | 0.00 | 0.00 | 0.00 | 37 | 1021.4 |
| 20260905082254 | 13 | 231 | 0.0 | 0.0 | 0.00 | 0.00 | 0.00 | 36 | 1021.4 |
| 20260905081750 | 13 | 268 | 0.0 | 0.0 | 0.00 | 0.00 | 0.00 | 36 | 1021.4 |
| 20260905081244 | 14 | 205 | 0.0 | 0.0 | 0.00 | 0.00 | 0.00 | 36 | 1021.4 |
| 20260905080737 | 14 | 205 | 0.0 | 0.0 | 0.00 | 0.00 | 0.00 | 35 | 1021.4 |
| 20260905080233 | 14 | 194 | 0.0 | 0.0 | 0.00 | 0.00 | 0.00 | 34 | 1021.8 |
| 20260905075535 | 14 | 194 | 0.0 | 0.0 | 0.00 | 0.00 | 0.00 | 35 | 1021.4 |
| 20260905075029 | 14 | 195 | 0.0 | 0.0 | 0.00 | 0.00 | 0.00 | 35 | 1021.4 |
| 20260905074523 | 15 | 218 | 0.0 | 0.0 | 0.00 | 0.00 | 0.00 | 35 | 1021.4 |
| 20260905074018 | 15 | 227 | 0.0 | 0.0 | 0.00 | 0.00 | 0.00 | 35 | 1021.4 |
| 20260905073513 | 15 | 225 | 0.0 | 0.0 | 0.00 | 0.00 | 0.00 | 33 | 1021.1 |
| 20260905073008 | 15 | 226 | 0.0 | 0.0 | 0.00 | 0.00 | 0.00 | 34 | 1021.1 |
| 20260905072502 | 15 | 226 | 0.0 | 0.0 | 0.00 | 0.00 | 0.00 | 33 | 1021.1 |
| 20260905071956 | 15 | 232 | 0.0 | 0.0 | 0.00 | 0.00 | 0.00 | 32 | 1021.1 |
| 20260905071451 | 15 | 211 | 0.0 | 0.0 | 0.00 | 0.00 | 0.00 | 32 | 1021.4 |
| 20260905071442 | 15 | 208 | 0.0 | 0.0 | 0.00 | 0.00 | 0.00 | 32 | 1021.4 |
| 20260905071047 | 15 | 216 | 0.0 | 0.0 | 0.00 | 0.00 | 0.00 | 32 | 1021.1 |
| 20260905065934 | 15 | 180 | 0.0 | 0.0 | 0.00 | 0.00 | 0.00 | 32 | 1021.4 |
| 20260905065428 | 15 | 224 | 0.0 | 0.0 | 0.00 | 0.00 | 0.00 | 32 | 1021.4 |
| 20260905064923 | 15 | 218 | 0.0 | 0.0 | 0.00 | 0.00 | 0.00 | 32 | 1021.4 |
| 20260905064417 | 15 | 34 | 0.0 | 0.0 | 0.00 | 0.00 | 0.00 | 30 | 1021.1 |
| 20260905063912 | 15 | 232 | 0.0 | 0.0 | 0.00 | 0.00 | 0.00 | 32 | 1021.1 |
| 20260905063407 | 15 | 218 | 0.0 | 0.0 | 0.00 | 0.00 | 0.00 | 33 | 1021.1 |
| 20260905062901 | 15 | 224 | 0.0 | 0.0 | 0.00 | 0.00 | 0.00 | 32 | 1021.1 |
| 20260905062356 | 15 | 236 | 0.0 | 0.0 | 0.00 | 0.00 | 0.00 | 32 | 1021.4 |
| 20260905061850 | 15 | 230 | 0.0 | 0.0 | 0.00 | 0.00 | 0.00 | 33 | 1021.1 |
| 20260905061344 | 15 | 230 | 0.0 | 0.0 | 0.00 | 0.00 | 0.00 | 33 | 1021.4 |
| 20260905060840 | 15 | 234 | 0.0 | 0.0 | 0.00 | 0.00 | 0.00 | 33 | 1021.4 |
| 20260905060835 | 16 | 234 | 0.0 | 0.0 | 0.00 | 0.00 | 0.00 | 33 | 1021.4 |
| 20260905055829 | 16 | 224 | 0.0 | 0.0 | 0.00 | 0.00 | 0.00 | 32 | 1021.1 |
| 20260905055824 | 16 | 224 | 0.0 | 0.0 | 0.00 | 0.00 | 0.00 | 32 | 1021.4 |
| 20260905054817 | 16 | 229 | 0.0 | 0.0 | 0.00 | 0.00 | 0.00 | 32 | 1021.4 |
| 20260905054409 | 16 | 225 | 0.0 | 0.0 | 0.00 | 0.00 | 0.00 | 30 | 1021.4 |
| 20260905054311 | 16 | 232 | 0.0 | 0.0 | 0.00 | 0.00 | 0.00 | 31 | 1021.1 |
| 20260905054302 | 17 | 219 | 0.0 | 0.0 | 0.00 | 0.00 | 0.00 | 30 | 1021.4 |
| 20260905052755 | 17 | 238 | 0.0 | 0.0 | 0.00 | 0.00 | 0.00 | 30 | 1021.8 |
| 20260905052249 | 17 | 231 | 0.0 | 0.0 | 0.00 | 0.00 | 0.00 | 30 | 1021.8 |
| 20260905051744 | 17 | 238 | 0.0 | 0.0 | 0.00 | 0.00 | 0.00 | 28 | 1021.8 |
| 20260905051239 | 17 | 235 | 0.0 | 0.0 | 0.00 | 0.00 | 0.00 | 28 | 1021.4 |
| 20260905050733 | 17 | 293 | 0.0 | 0.0 | 0.00 | 0.00 | 0.00 | 28 | 1021.4 |
| 20260905050728 | 17 | 203 | 0.0 | 0.0 | 0.00 | 0.00 | 0.00 | 28 | 1021.8 |
| 20260905045722 | 17 | 232 | 0.0 | 0.0 | 0.00 | 0.00 | 0.00 | 28 | 1021.4 |
| 20260905045216 | 17 | 230 | 0.0 | 0.0 | 0.00 | 0.00 | 0.00 | 28 | 1021.8 |
| 20260905045207 | 17 | 239 | 0.0 | 0.0 | 0.00 | 0.00 | 0.00 | 28 | 1021.8 |
| 20260905044812 | 17 | 214 | 0.0 | 0.0 | 0.00 | 0.00 | 0.00 | 28 | 1021.8 |
| 20260905043659 | 18 | 260 | 0.0 | 0.0 | 0.00 | 0.00 | 0.00 | 29 | 1021.8 |
| 20260905043155 | 18 | 249 | 0.0 | 0.0 | 0.00 | 0.00 | 0.00 | 28 | 1021.4 |
| 20260905042648 | 18 | 312 | 0.0 | 0.0 | 0.00 | 0.00 | 0.00 | 28 | 1021.8 |
| 20260905042143 | 18 | 320 | 0.0 | 0.0 | 0.00 | 0.00 | 0.00 | 29 | 1021.4 |
| 20260905042138 | 18 | 234 | 0.0 | 0.0 | 0.00 | 0.00 | 0.00 | 29 | 1021.1 |
| 20260905041133 | 19 | 240 | 0.0 | 1.6 | 0.00 | 0.00 | 0.00 | 31 | 1021.1 |
| 20260905040626 | 19 | 201 | 0.0 | 1.6 | 0.00 | 0.00 | 0.00 | 30 | 1021.4 |
| 20260905040121 | 19 | 207 | 0.0 | 1.6 | 0.00 | 0.00 | 0.00 | 30 | 1021.1 |
| 20260905035615 | 19 | 235 | 0.0 | 1.6 | 0.00 | 0.00 | 0.00 | 31 | 1021.1 |
| 20260905035110 | 19 | 256 | 0.0 | 1.6 | 0.00 | 0.00 | 0.00 | 31 | 1020.7 |
| 20260905034607 | 20 | 351 | 0.0 | 1.6 | 0.00 | 0.00 | 0.00 | 30 | 1020.7 |
| 20260905034600 | 20 | 206 | 0.0 | 0.0 | 0.00 | 0.00 | 0.00 | 30 | 1020.7 |
| 20260905033554 | 20 | 293 | 0.0 | 0.0 | 0.00 | 0.00 | 0.00 | 29 | 1020.7 |
| 20260905033047 | 20 | 269 | 0.0 | 1.6 | 0.00 | 0.00 | 0.00 | 29 | 1020.7 |
| 20260905032543 | 20 | 297 | 0.0 | 1.6 | 0.00 | 0.00 | 0.00 | 28 | 1020.7 |
| 20260905032037 | 20 | 302 | 0.0 | 0.0 | 0.00 | 0.00 | 0.00 | 28 | 1020.4 |
| 20260905031532 | 20 | 188 | 0.0 | 0.0 | 0.00 | 0.00 | 0.00 | 27 | 1020.7 |
| 20260905031026 | 20 | 207 | 0.0 | 0.0 | 0.00 | 0.00 | 0.00 | 25 | 1020.7 |
| 20260905030520 | 20 | 214 | 0.0 | 0.0 | 0.00 | 0.00 | 0.00 | 25 | 1020.4 |
| 20260905030515 | 21 | 270 | 0.0 | 0.0 | 0.00 | 0.00 | 0.00 | 24 | 1020.1 |
| 20260905025509 | 21 | 293 | 0.0 | 0.0 | 0.00 | 0.00 | 0.00 | 24 | 1020.4 |
| 20260905025004 | 21 | 240 | 0.0 | 0.0 | 0.00 | 0.00 | 0.00 | 24 | 1020.4 |
| 20260905024459 | 21 | 276 | 0.0 | 0.0 | 0.00 | 0.00 | 0.00 | 24 | 1020.4 |
| 20260905023952 | 21 | 291 | 0.0 | 1.6 | 0.00 | 0.00 | 0.00 | 22 | 1020.1 |
| 20260905023447 | 21 | 13 | 0.0 | 1.6 | 0.00 | 0.00 | 0.00 | 22 | 1020.1 |
| 20260905022942 | 21 | 236 | 0.0 | 0.0 | 0.00 | 0.00 | 0.00 | 21 | 1020.1 |
| 20260905022436 | 22 | 201 | 0.0 | 3.2 | 0.00 | 0.00 | 0.00 | 21 | 1020.1 |
| 20260905021931 | 22 | 208 | 0.0 | 3.2 | 0.00 | 0.00 | 0.00 | 21 | 1020.1 |
| 20260905021425 | 22 | 242 | 0.0 | 0.0 | 0.00 | 0.00 | 0.00 | 20 | 1020.1 |
| 20260905020921 | 22 | 310 | 0.0 | 0.0 | 0.00 | 0.00 | 0.00 | 20 | 1019.7 |
| 20260905020915 | 22 | 297 | 0.0 | 3.2 | 0.00 | 0.00 | 0.00 | 19 | 1020.1 |
| 20260905015908 | 23 | 185 | 0.0 | 3.2 | 0.00 | 0.00 | 0.00 | 19 | 1019.7 |
| 20260905015403 | 23 | 308 | 0.0 | 1.6 | 0.00 | 0.00 | 0.00 | 19 | 1020.1 |
| 20260905014857 | 23 | 291 | 0.0 | 0.0 | 0.00 | 0.00 | 0.00 | 18 | 1020.1 |
| 20260905014352 | 23 | 321 | 0.0 | 0.0 | 0.00 | 0.00 | 0.00 | 17 | 1020.1 |
| 20260905013846 | 23 | 282 | 0.0 | 0.0 | 0.00 | 0.00 | 0.00 | 16 | 1020.1 |
| 20260905013838 | 24 | 227 | 0.0 | 3.2 | 0.00 | 0.00 | 0.00 | 15 | 1019.7 |
| 20260905013442 | 24 | 220 | 0.0 | 0.0 | 0.00 | 0.00 | 0.00 | 16 | 1020.1 |
| 20260905012330 | 24 | 197 | 0.0 | 3.2 | 0.00 | 0.00 | 0.00 | 14 | 1019.7 |
| 20260905011824 | 24 | 189 | 0.0 | 1.6 | 0.00 | 0.00 | 0.00 | 14 | 1019.7 |
| 20260905011318 | 24 | 250 | 0.0 | 1.6 | 0.00 | 0.00 | 0.00 | 13 | 1019.7 |
| 20260905010813 | 24 | 277 | 0.0 | 1.6 | 0.00 | 0.00 | 0.00 | 13 | 1019.7 |
| 20260905010307 | 24 | 242 | 0.0 | 0.0 | 0.00 | 0.00 | 0.00 | 13 | 1019.7 |
| 20260905005802 | 24 | 238 | 0.0 | 4.8 | 0.00 | 0.00 | 0.00 | 16 | 1019.7 |
| 20260905005257 | 25 | 34 | 0.0 | 4.8 | 0.00 | 0.00 | 0.00 | 14 | 1019.7 |
| 20260905004751 | 25 | 274 | 0.0 | 1.6 | 0.00 | 0.00 | 0.00 | 14 | 1019.7 |
| 20260905004245 | 25 | 211 | 0.0 | 1.6 | 0.00 | 0.00 | 0.00 | 13 | 1019.7 |
| 20260905003741 | 25 | 244 | 0.0 | 1.6 | 0.00 | 0.00 | 0.00 | 11 | 1019.4 |
| 20260905003736 | 25 | 248 | 0.0 | 1.6 | 0.00 | 0.00 | 0.00 | 11 | 1019.7 |
| 20260905002728 | 25 | 13 | 0.0 | 1.6 | 0.00 | 0.00 | 0.00 | 11 | 1019.7 |
| 20260905002224 | 25 | 311 | 0.0 | 3.2 | 0.00 | 0.00 | 0.00 | 11 | 1019.7 |
| 20260905001718 | 25 | 135 | 0.0 | 3.2 | 0.00 | 0.00 | 0.00 | 10 | 1019.7 |
| 20260905001212 | 25 | 214 | 0.0 | 0.0 | 0.00 | 0.00 | 0.00 | 10 | 1019.7 |
| 20260905001203 | 25 | 345 | 0.0 | 1.6 | 0.00 | 0.00 | 0.00 | 10 | 1019.7 |
| 20260905000808 | 25 | 105 | 0.0 | 0.0 | 0.00 | 0.00 | 0.00 | 10 | 1019.7 |
| 20260904235658 | 25 | 211 | 0.0 | 1.6 | 0.00 | 0.00 | 0.00 | 10 | 1019.7 |
| 20260904235653 | 25 | 238 | 0.0 | 1.6 | 0.00 | 0.00 | 0.00 | 10 | 1019.7 |
| 20260904234645 | 25 | 211 | 0.0 | 1.6 | 0.00 | 0.00 | 0.00 | 10 | 1019.7 |
| 20260904234139 | 25 | 309 | 0.0 | 0.0 | 0.00 | 0.00 | 0.00 | 10 | 1019.7 |
| 20260904233633 | 25 | 224 | 0.0 | 1.6 | 0.00 | 0.00 | 0.00 | 10 | 1019.7 |
| 20260904233127 | 25 | 204 | 0.0 | 1.6 | 0.00 | 0.00 | 0.00 | 10 | 1020.1 |
| 20260904232624 | 25 | 34 | 0.0 | 1.6 | 0.00 | 0.00 | 0.00 | 10 | 1019.7 |
| 20260904232619 | 25 | 242 | 0.0 | 1.6 | 0.00 | 0.00 | 0.00 | 10 | 1019.7 |
| 20260904232108 | 25 | 189 | 0.0 | 3.2 | 0.00 | 0.00 | 0.00 | 10 | 1020.1 |
| 20260904231712 | 25 | 352 | 0.0 | 3.2 | 0.00 | 0.00 | 0.00 | 11 | 1019.7 |